This is the latest recevied weather packets stored in our database for station/object IW1CBG-23. If no packets are shown the sender has not sent any weather packets the latest 10 day(s).
| Time | Temp. | Humidity | Pressure | Rain* | Wind** | Luminosity | Snow |
|---|---|---|---|---|---|---|---|
| 1777255876 | 12.78° C | 99% | 1013.7 hPa | - | - | - | - |
| 1777254639 | 13.33° C | 98% | 1013.7 hPa | - | - | - | - |
| 1777253400 | 12.78° C | 96% | 1013.7 hPa | - | - | - | - |
| 1777252162 | 13.33° C | 93% | 1014 hPa | - | - | - | - |
| 1777250925 | 13.33° C | 91% | 1014.2 hPa | - | - | - | - |
| 1777249688 | 13.89° C | 89% | 1014.3 hPa | - | - | - | - |
| 1777248451 | 13.89° C | 87% | 1014.5 hPa | - | - | - | - |
| 1777247214 | 13.89° C | 83% | 1014.6 hPa | - | - | - | - |
| 1777245976 | 13.89° C | 81% | 1014.5 hPa | - | - | - | - |
| 1777244739 | 13.89° C | 79% | 1014.5 hPa | - | - | - | - |
| 1777243502 | 13.89° C | 77% | 1014.4 hPa | - | - | - | - |
| 1777242264 | 14.44° C | 76% | 1014.5 hPa | - | - | - | - |
| 1777241027 | 14.44° C | 74% | 1014.5 hPa | - | - | - | - |
| 1777239789 | 14.44° C | 74% | 1014.7 hPa | - | - | - | - |
| 1777238551 | 14.44° C | 73% | 1014.6 hPa | - | - | - | - |
| 1777237314 | 15° C | 70% | 1014.7 hPa | - | - | - | - |
| 1777236076 | 15° C | 66% | 1014.6 hPa | - | - | - | - |
| 1777234839 | 15° C | 69% | 1014.5 hPa | - | - | - | - |
| 1777233601 | 14.44° C | 88% | 1014.4 hPa | - | - | - | - |
| 1777232364 | 14.44° C | 88% | 1014.2 hPa | - | - | - | - |
| 1777231127 | 14.44° C | 90% | 1014 hPa | - | - | - | - |
| 1777229890 | 14.44° C | 84% | 1013.9 hPa | - | - | - | - |
| 1777228653 | 14.44° C | 80% | 1013.7 hPa | - | - | - | - |
| 1777227416 | 14.44° C | 77% | 1013.5 hPa | - | - | - | - |
| 1777226179 | 15° C | 72% | 1013.4 hPa | - | - | - | - |
* Rain since midnight (hover to see other rain measurements)
** Current wind speed in m/s (hover to see current wind gust speed)